User: anonymous   Login
Location: Stara Lesna
(49.1528°N, 20.2911°E)
Time: 11:45:00
(UTC+01:00)
Language:

STARLINK-54 - Orbit

View from above orbital plane
View from above orbital plane
View from above satellite
View from above satellite

Ground track
Ground track

The orbit data is extracted from the following two-line orbital elements,

1 44266U 19029AH  19317.68931025 +.00000276 +00000-0 +38183-4 0  9990
2 44266 052.9951 112.2646 0002361 130.4465 229.6729 15.05492019025518
Epoch (UTC): 13 November 2019 16:32:36
Eccentricity: 0.0002361
inclination: 52.9951°
perigee height: 548 km
apogee height: 551 km
right ascension of ascending node: 112.2646°
argument of perigee: 130.4465°
revolutions per day: 15.05492019
mean anomaly at epoch: 229.6729°
orbit number at epoch: 2551

The dashed part of the orbit path shows where the satellite is in the earth's shadow,  

DLR